When you browse on this site, cookies collect data to enhance your experience and personalize the content and advertising you see.
Visit our Privacy Policy to learn more. By continuing to use the site, you agree to this use of cookies and data.

Météo par heure à Achtarak

Ce jour, 7 Août, Vendredi

Heure Température Précipitation Vent Pression Humidité
00:00 +19°C° 0 mm 3 m/s 658 mmHg 61%
01:00 +18°C° 0 mm 3 m/s 659 mmHg 61%
02:00 +18°C° 0 mm 3 m/s 659 mmHg 62%
03:00 +18°C° 0 mm 3 m/s 659 mmHg 59%
04:00 +18°C° 0 mm 2 m/s 659 mmHg 60%
05:00 +18°C° 0 mm 2 m/s 659 mmHg 61%
06:00 +18°C° 0 mm 2 m/s 659 mmHg 63%
07:00 +20°C° 0 mm 2 m/s 660 mmHg 57%
08:00 +23°C° 0 mm 2 m/s 660 mmHg 51%
09:00 +25°C° 0 mm 2 m/s 660 mmHg 45%
10:00 +26°C° 0 mm 2 m/s 660 mmHg 43%
11:00 +27°C° 0 mm 2 m/s 660 mmHg 41%
12:00 +28°C° 0 mm 2 m/s 661 mmHg 38%
13:00 +28°C° 0 mm 2 m/s 660 mmHg 38%
14:00 +29°C° 0 mm 3 m/s 660 mmHg 37%
15:00 +29°C° 0 mm 3 m/s 660 mmHg 36%
16:00 +28°C° 0 mm 4 m/s 660 mmHg 40%
17:00 +27°C° 0 mm 5 m/s 659 mmHg 44%
18:00 +27°C° 0 mm 5 m/s 659 mmHg 47%
19:00 +25°C° 0 mm 5 m/s 659 mmHg 51%
20:00 +22°C° 0 mm 4 m/s 659 mmHg 54%
21:00 +21°C° 0 mm 4 m/s 659 mmHg 57%
22:00 +20°C° 0 mm 3 m/s 659 mmHg 57%
23:00 +19°C° 0 mm 3 m/s 659 mmHg 56%

Demain, 8 Août, Samedi

Heure Température Précipitation Vent Pression Humidité
00:00 +19°C° 0 mm 2 m/s 659 mmHg 55%
01:00 +18°C° 0 mm 2 m/s 658 mmHg 54%
02:00 +18°C° 0 mm 2 m/s 658 mmHg 53%
03:00 +17°C° 0 mm 2 m/s 658 mmHg 52%
04:00 +18°C° 0 mm 2 m/s 658 mmHg 52%
05:00 +18°C° 0 mm 2 m/s 658 mmHg 52%
06:00 +19°C° 0 mm 1 m/s 658 mmHg 52%
07:00 +20°C° 0 mm 2 m/s 659 mmHg 48%
08:00 +23°C° 0 mm 2 m/s 659 mmHg 45%
09:00 +25°C° 0 mm 2 m/s 659 mmHg 41%
10:00 +26°C° 0 mm 2 m/s 659 mmHg 38%
11:00 +27°C° 0 mm 2 m/s 659 mmHg 35%
12:00 +29°C° 0 mm 2 m/s 659 mmHg 33%
13:00 +29°C° 0 mm 2 m/s 658 mmHg 31%
14:00 +30°C° 0 mm 2 m/s 658 mmHg 29%
15:00 +30°C° 0 mm 2 m/s 658 mmHg 27%
16:00 +30°C° 0 mm 2 m/s 657 mmHg 30%
17:00 +29°C° 0 mm 3 m/s 657 mmHg 34%
18:00 +28°C° 0 mm 3 m/s 657 mmHg 37%
19:00 +27°C° 0 mm 3 m/s 656 mmHg 44%
20:00 +25°C° 0 mm 3 m/s 656 mmHg 50%
21:00 +22°C° 0 mm 3 m/s 656 mmHg 56%
22:00 +21°C° 0 mm 3 m/s 656 mmHg 56%
23:00 +20°C° 0 mm 3 m/s 656 mmHg 56%

Après-demain, 9 Août, Dimanche

Heure Température Précipitation Vent Pression Humidité
00:00 +20°C° 0 mm 2 m/s 656 mmHg 57%
01:00 +19°C° 0 mm 2 m/s 656 mmHg 57%
02:00 +19°C° 0 mm 2 m/s 655 mmHg 58%
03:00 +19°C° 0 mm 2 m/s 655 mmHg 58%
04:00 +19°C° 0 mm 2 m/s 655 mmHg 59%
05:00 +20°C° 0 mm 1 m/s 655 mmHg 60%
06:00 +20°C° 0 mm 1 m/s 655 mmHg 61%
07:00 +22°C° 0 mm 1 m/s 656 mmHg 54%
08:00 +24°C° 0 mm 1 m/s 656 mmHg 47%
09:00 +27°C° 0 mm 1 m/s 656 mmHg 41%
10:00 +28°C° 0 mm 2 m/s 656 mmHg 37%
11:00 +29°C° 0 mm 2 m/s 656 mmHg 33%
12:00 +30°C° 0 mm 2 m/s 656 mmHg 30%
13:00 +31°C° 0 mm 2 m/s 656 mmHg 28%
14:00 +32°C° 0 mm 2 m/s 656 mmHg 26%
15:00 +32°C° 0 mm 2 m/s 656 mmHg 25%
16:00 +32°C° 0 mm 2 m/s 655 mmHg 28%
17:00 +31°C° 0 mm 2 m/s 655 mmHg 31%
18:00 +31°C° 0 mm 2 m/s 655 mmHg 35%
19:00 +29°C° 0 mm 2 m/s 655 mmHg 40%
20:00 +26°C° 0 mm 3 m/s 655 mmHg 45%
21:00 +24°C° 0 mm 3 m/s 655 mmHg 50%
22:00 +24°C° 0 mm 3 m/s 655 mmHg 50%
23:00 +24°C° 0 mm 3 m/s 655 mmHg 49%

10 Août, Lundi

Heure Température Précipitation Vent Pression Humidité
00:00 +22°C° 0 mm 3 m/s 655 mmHg 49%
01:00 +23°C° 0 mm 2 m/s 655 mmHg 50%
02:00 +21°C° 0 mm 2 m/s 654 mmHg 51%
03:00 +21°C° 0 mm 2 m/s 654 mmHg 51%
04:00 +21°C° 0 mm 2 m/s 654 mmHg 53%
05:00 +22°C° 0 mm 1 m/s 655 mmHg 54%
06:00 +22°C° 0 mm 1 m/s 655 mmHg 55%
07:00 +24°C° 0 mm 1 m/s 655 mmHg 49%
08:00 +26°C° 0 mm 2 m/s 656 mmHg 42%
09:00 +29°C° 0 mm 2 m/s 656 mmHg 36%
10:00 +30°C° 0 mm 2 m/s 656 mmHg 32%
11:00 +31°C° 0 mm 2 m/s 656 mmHg 29%
12:00 +34°C° 0 mm 2 m/s 656 mmHg 26%
13:00 +34°C° 0 mm 2 m/s 656 mmHg 24%
14:00 +35°C° 0 mm 2 m/s 656 mmHg 22%
15:00 +36°C° 0 mm 2 m/s 655 mmHg 21%
16:00 +35°C° 0 mm 3 m/s 655 mmHg 27%
17:00 +33°C° 0 mm 3 m/s 655 mmHg 33%
18:00 +32°C° 0 mm 4 m/s 655 mmHg 39%
19:00 +29°C° 0 mm 4 m/s 655 mmHg 44%
20:00 +27°C° 0 mm 5 m/s 655 mmHg 49%
21:00 +25°C° 0 mm 5 m/s 655 mmHg 55%
22:00 +23°C° 0 mm 4 m/s 655 mmHg 55%
23:00 +23°C° 0 mm 4 m/s 655 mmHg 56%

11 Août, Mardi

Heure Température Précipitation Vent Pression Humidité
00:00 +22°C° 0 mm 3 m/s 655 mmHg 56%
01:00 +21°C° 0 mm 3 m/s 655 mmHg 58%
02:00 +21°C° 0 mm 3 m/s 655 mmHg 59%
03:00 +20°C° 0 mm 3 m/s 655 mmHg 61%
04:00 +20°C° 0 mm 3 m/s 655 mmHg 61%
05:00 +20°C° 0 mm 2 m/s 655 mmHg 62%
06:00 +20°C° 0 mm 2 m/s 655 mmHg 62%
07:00 +23°C° 0 mm 2 m/s 656 mmHg 56%
08:00 +25°C° 0 mm 2 m/s 656 mmHg 50%
09:00 +27°C° 0 mm 1 m/s 657 mmHg 44%
10:00 +29°C° 0 mm 1 m/s 657 mmHg 40%
11:00 +30°C° 0 mm 1 m/s 657 mmHg 36%
12:00 +32°C° 0 mm 2 m/s 657 mmHg 32%
13:00 +32°C° 0.1 mm 2 m/s 656 mmHg 29%
14:00 +34°C° 0.1 mm 2 m/s 656 mmHg 27%
15:00 +34°C° 0.1 mm 2 m/s 656 mmHg 24%
16:00 +32°C° 0.1 mm 2 m/s 656 mmHg 29%
17:00 +31°C° 0.1 mm 3 m/s 656 mmHg 34%
18:00 +30°C° 0.1 mm 3 m/s 655 mmHg 39%
19:00 +28°C° 0 mm 4 m/s 655 mmHg 45%
20:00 +26°C° 0 mm 4 m/s 655 mmHg 50%
21:00 +23°C° 0 mm 4 m/s 655 mmHg 56%
22:00 +22°C° 0 mm 4 m/s 655 mmHg 56%
23:00 +22°C° 0 mm 4 m/s 655 mmHg 57%

12 Août, Mercredi

Heure Température Précipitation Vent Pression Humidité
00:00 +21°C° 0 mm 3 m/s 656 mmHg 58%
01:00 +21°C° 0 mm 3 m/s 655 mmHg 59%
02:00 +21°C° 0 mm 3 m/s 655 mmHg 60%
03:00 +20°C° 0 mm 3 m/s 655 mmHg 62%
04:00 +20°C° 0 mm 3 m/s 655 mmHg 62%
05:00 +20°C° 0 mm 3 m/s 656 mmHg 63%
06:00 +20°C° 0 mm 2 m/s 656 mmHg 63%
07:00 +23°C° 0 mm 2 m/s 656 mmHg 57%
08:00 +25°C° 0 mm 2 m/s 657 mmHg 52%
09:00 +27°C° 0 mm 2 m/s 657 mmHg 46%
10:00 +28°C° 0 mm 2 m/s 657 mmHg 43%
11:00 +30°C° 0 mm 1 m/s 657 mmHg 41%
12:00 +31°C° 0 mm 1 m/s 657 mmHg 38%
13:00 +31°C° 0.1 mm 2 m/s 657 mmHg 37%
14:00 +32°C° 0.1 mm 2 m/s 656 mmHg 36%
15:00 +33°C° 0.1 mm 3 m/s 656 mmHg 35%
16:00 +31°C° 0 mm 3 m/s 656 mmHg 40%
17:00 +30°C° 0 mm 4 m/s 656 mmHg 44%
18:00 +29°C° 0 mm 4 m/s 655 mmHg 49%
19:00 +27°C° 0 mm 4 m/s 655 mmHg 52%
20:00 +26°C° 0 mm 4 m/s 656 mmHg 56%
21:00 +23°C° 0 mm 4 m/s 656 mmHg 60%
22:00 +22°C° 0 mm 4 m/s 656 mmHg 62%
23:00 +22°C° 0 mm 3 m/s 656 mmHg 64%
Voir plus